[[{"header":{"parameterUnit":"m.s-1","parameterCategory":1,"la1":30.2991,"la2":30.254,"lo1":-89.0895,"lo2":-89.0444,"dy":0.0017,"dx":0.0017,"nx":28,"ny":28,"refTime":"2024-06-02T03:00:00:Z","depth":0,"parameterNumber":2,"parameterNumberName":"U-component_of_WINDS"},"data":[0,0,0,0,0,0,0,0,0,0,0,0,0,0,0,0,0,0,0,0,0,0,0,0,0,0,0,0,0,0,0,0,0,0,0,0,0,0,0,0,0,0,0,0,0,0,0,0,0,0,0,0,0,0,0,0,0,0,-1.1286,-1.1286,0,-1.124,-1.1239,-1.1239,-1.1173,-1.1172,-1.1171,-1.117,-1.1125,-1.1125,-1.1124,0,0,0,0,0,0,0,0,0,0,0,0,0,-1.1321,-1.1321,-1.1286,-1.1286,-1.1285,-1.124,-1.1239,-1.1239,-1.1174,-1.1172,-1.1171,-1.117,-1.1125,-1.1125,-1.1124,0,0,0,0,0,0,0,0,0,0,0,0,0,-1.1294,-1.1321,-1.1287,-1.1247,-1.1243,-1.124,-1.1239,-1.1239,-1.1174,-1.1172,-1.1171,-1.1169,-1.1125,-1.1125,-1.1124,-1.1157,0,0,-1.1124,-1.1124,0,0,0,0,0,0,0,0,-1.1296,-1.1293,-1.1254,-1.125,-1.1245,-1.1211,-1.1235,-1.1211,-1.1174,-1.12,-1.117,-1.1168,-1.1155,-1.1152,-1.1147,-1.1155,-1.1153,-1.1124,-1.1124,-1.1123,-1.1123,0,0,0,0,0,0,0,-1.1298,-1.1294,-1.1268,-1.1253,-1.1248,-1.1233,-1.1227,-1.123,-1.1188,-1.1198,-1.1193,-1.1188,-1.1152,-1.1148,-1.1146,-1.1152,-1.1124,-1.1123,-1.1123,-1.1123,-1.1185,-1.1186,0,0,0,0,0,0,-1.1305,-1.1296,-1.127,-1.1267,-1.1267,-1.1234,-1.1227,-1.1224,-1.1187,-1.118,-1.119,-1.1185,-1.1149,-1.1146,-1.1144,-1.118,-1.1123,-1.1123,-1.1123,-1.1183,-1.1185,-1.1187,0,0,0,0,0,0,-1.1306,-1.1303,-1.1271,-1.128,-1.1275,-1.1235,-1.1231,-1.1224,-1.1219,-1.1181,-1.1174,-1.1193,-1.1147,-1.1144,-1.1154,-1.1177,-1.1123,-1.1123,-1.1181,-1.1184,-1.1186,-1.1252,0,0,0,0,0,0,-1.1307,-1.1304,-1.1315,-1.1281,-1.1275,-1.1282,-1.1233,-1.1224,-1.1218,-1.1212,-1.1182,-1.1175,-1.1146,-1.1155,-1.1154,-1.1176,-1.1123,-1.1179,-1.1182,-1.1185,-1.1248,-1.1257,-1.1265,0,0,0,0,0,-1.1309,-1.1336,-1.1316,-1.1313,-1.1288,-1.1283,-1.128,-1.1245,-1.122,-1.1232,-1.1208,-1.1176,-1.1175,-1.1156,-1.1155,-1.1177,-1.1177,-1.1181,-1.1185,-1.1244,-1.1255,-1.1264,0,0,0,0,0,0,-1.1375,-1.1331,-1.1308,-1.1325,-1.1308,-1.1272,-1.1286,-1.1257,-1.1248,-1.1243,-1.12,-1.1194,-1.121,-1.1194,-1.1174,-1.1207,-1.1171,-1.1175,-1.1217,-1.1227,-1.1235,-1.1239,-1.1123,0,0,0,0,0,-1.1391,-1.139,-1.1352,-1.1371,-1.1363,-1.1326,-1.1323,-1.1297,-1.1279,-1.1272,-1.1248,-1.1232,-1.1228,-1.1227,-1.1221,-1.1245,-1.1238,-1.126,-1.1268,-1.1275,-1.1279,-1.1292,-1.1302,-1.12,-1.12,-1.12,0,0,-1.1425,-1.1401,-1.1403,-1.1383,-1.1367,-1.1369,-1.1321,-1.1324,-1.1325,-1.1272,-1.128,-1.1263,-1.1242,-1.126,-1.1266,-1.1247,-1.1306,-1.128,-1.1286,-1.1286,-1.1297,-1.1307,-1.1316,-1.1203,-1.1202,-1.1202,0,0,-1.1488,-1.1469,-1.1483,-1.1468,-1.1444,-1.1419,-1.1423,-1.1391,-1.1377,-1.1385,-1.1346,-1.1346,-1.134,-1.1327,-1.132,-1.1378,-1.1349,-1.1378,-1.1422,-1.1435,-1.1443,-1.145,-1.1471,-1.148,-1.1382,-1.1382,-1.1382,0,-1.1533,-1.1532,-1.1493,-1.1499,-1.1492,-1.1444,-1.1458,-1.1446,-1.1422,-1.1419,-1.1398,-1.1389,-1.1372,-1.1387,-1.1401,-1.1396,-1.14,-1.1381,-1.1445,-1.1451,-1.1457,-1.1477,-1.1486,-1.1386,-1.1385,-1.1385,-1.1384,0,-1.159,-1.159,-1.1604,-1.1582,-1.1577,-1.1587,-1.155,-1.1549,-1.1525,-1.1502,-1.1511,-1.1488,-1.1478,-1.1479,-1.1455,-1.149,-1.1479,-1.1452,-1.1415,-1.1471,-1.149,-1.1497,-1.1391,-1.139,-1.1388,-1.1388,0,0,-1.1693,-1.1649,-1.1655,-1.1645,-1.1615,-1.1615,-1.1624,-1.1613,-1.1613,-1.1599,-1.1605,-1.1601,-1.1576,-1.1568,-1.1542,-1.1553,-1.1602,-1.1524,-1.1523,-1.154,-1.1641,-1.1663,-1.1672,-1.1583,-1.1584,-1.1585,-1.1643,0,-1.1751,-1.1762,-1.1727,-1.1747,-1.1748,-1.1703,-1.171,-1.1694,-1.1673,-1.1671,-1.1649,-1.1647,-1.1613,-1.1608,-1.1617,-1.1595,-1.1622,-1.159,-1.159,-1.159,-1.1597,-1.1682,-1.1704,-1.176,-1.165,-1.1651,-1.1652,0,-1.1819,-1.1808,-1.1828,-1.1798,-1.1797,-1.1805,-1.1792,-1.179,-1.1771,-1.1756,-1.1747,-1.1717,-1.1724,-1.1688,-1.1698,-1.1677,-1.1675,-1.1663,-1.1665,-1.1664,-1.1625,-1.1684,-1.1777,-1.1786,-1.1663,-1.1662,-1.1661,0,-1.1894,-1.1883,-1.1894,-1.1887,-1.1852,-1.1858,-1.1845,-1.1823,-1.1819,-1.1809,-1.1806,-1.1796,-1.1791,-1.1785,-1.1754,-1.173,-1.1768,-1.1729,-1.1756,-1.1757,-1.1766,-1.1766,-1.1861,-1.1764,-1.1764,-1.1764,-1.1763,0,-1.1962,-1.1976,-1.1927,-1.1934,-1.1949,-1.191,-1.1926,-1.1908,-1.189,-1.1893,-1.1853,-1.1858,-1.1815,-1.1815,-1.179,-1.1803,-1.1801,-1.1789,-1.1782,-1.1793,-1.1795,-1.1791,-1.1787,-1.1766,-1.1765,-1.1765,-1.1764,0,-1.2048,-1.2015,-1.2024,-1.1991,-1.1983,-1.1995,-1.1967,-1.1973,-1.195,-1.1955,-1.1954,-1.1918,-1.1916,-1.1883,-1.1874,-1.1858,-1.188,-1.1866,-1.1887,-1.1883,-1.1911,-1.191,-1.2008,-1.202,-1.1915,-1.1916,-1.1917,0,-1.2094,-1.2104,-1.2071,-1.207,-1.2058,-1.2057,-1.2053,-1.2015,-1.2012,-1.1991,-1.1999,-1.1994,-1.1987,-1.1986,-1.196,-1.1953,-1.1938,-1.1974,-1.1937,-1.1948,-1.194,-1.194,-1.1941,-1.1982,-1.1983,-1.1984,-1.1985,0,-1.2179,-1.2163,-1.2157,-1.2147,-1.2142,-1.2132,-1.212,-1.2122,-1.208,-1.2079,-1.2076,-1.2071,-1.2061,-1.2057,-1.2045,-1.2031,-1.2002,-1.1997,-1.2002,-1.2014,-1.2026,-1.202,-1.1909,-1.1995,-1.1994,-1.1993,-1.1992,-1.1992,-1.2247,-1.2254,-1.2233,-1.2228,-1.2215,-1.2204,-1.2208,-1.2186,-1.2182,-1.2171,-1.2149,-1.215,-1.2131,-1.2112,-1.2101,-1.2102,-1.2084,-1.2093,-1.2095,-1.2098,-1.2104,-1.2025,-1.21,-1.2099,-1.2099,-1.2099,-1.2099,0,-1.2331,-1.2315,-1.2312,-1.2295,-1.2292,-1.2264,-1.2249,-1.2248,-1.2249,-1.2234,-1.2228,-1.2225,-1.2221,-1.2195,-1.2187,-1.2193,-1.2179,-1.2192,-1.2192,-1.2189,-1.212,-1.2116,-1.2204,-1.2204,-1.2203,-1.2203,-1.2203,-1.2203,-1.2375,-1.2386,-1.2367,-1.2371,-1.2355,-1.2355,-1.2349,-1.2339,-1.2327,-1.2325,-1.2321,-1.2304,-1.2285,-1.2276,-1.2271,-1.2263,-1.2263,-1.2281,-1.2269,-1.2204,-1.2194,-1.2185,-1.2181,-1.2281,-1.2281,-1.2338,-1.2339,-1.2339]},{"header":{"parameterUnit":"m.s-1","parameterCategory":1,"la1":30.2991,"la2":30.254,"lo1":-89.0895,"lo2":-89.0444,"dy":0.0017,"dx":0.0017,"nx":28,"ny":28,"refTime":"2024-06-02T03:00:00:Z","depth":0,"parameterNumber":3,"parameterNumberName":"V-component_of_WINDS"},"data":[0,0,0,0,0,0,0,0,0,0,0,0,0,0,0,0,0,0,0,0,0,0,0,0,0,0,0,0,0,0,0,0,0,0,0,0,0,0,0,0,0,0,0,0,0,0,0,0,0,0,0,0,0,0,0,0,0,0,3.8922,3.8923,0,3.8955,3.8955,3.8956,3.8875,3.8872,3.887,3.8867,3.8901,3.8904,3.8907,0,0,0,0,0,0,0,0,0,0,0,0,0,3.8787,3.879,3.8922,3.8923,3.8923,3.8955,3.8955,3.8956,3.8875,3.8872,3.8869,3.8866,3.89,3.8903,3.8907,0,0,0,0,0,0,0,0,0,0,0,0,0,3.8835,3.8791,3.8922,3.8887,3.8884,3.8955,3.8955,3.8956,3.8876,3.8872,3.8868,3.8865,3.8898,3.8903,3.8908,3.9015,0,0,3.8923,3.8925,0,0,0,0,0,0,0,0,3.8833,3.884,3.8891,3.8889,3.8886,3.8907,3.892,3.8976,3.8877,3.8879,3.8867,3.8863,3.8906,3.891,3.8924,3.9016,3.9018,3.8923,3.8926,3.8928,3.893,0,0,0,0,0,0,0,3.8829,3.8838,3.8935,3.8892,3.8889,3.8868,3.8871,3.893,3.8913,3.8878,3.8873,3.8878,3.8904,3.892,3.8925,3.9018,3.8923,3.8928,3.8931,3.8932,3.9196,3.9199,0,0,0,0,0,0,3.8831,3.8836,3.8934,3.8936,3.8849,3.8874,3.8877,3.8904,3.8913,3.891,3.8881,3.8874,3.8913,3.8919,3.8925,3.9049,3.8928,3.8933,3.8936,3.9192,3.9196,3.9201,0,0,0,0,0,0,3.8828,3.884,3.8933,3.8885,3.8895,3.888,3.8912,3.8907,3.8923,3.8914,3.8911,3.8901,3.8911,3.8919,3.8992,3.9049,3.8935,3.894,3.9187,3.9193,3.9199,3.9298,0,0,0,0,0,0,3.8825,3.884,3.8881,3.8886,3.8898,3.9,3.8915,3.891,3.8932,3.8923,3.8932,3.893,3.8908,3.8985,3.8997,3.9053,3.8943,3.9182,3.919,3.9197,3.9289,3.9306,3.9321,0,0,0,0,0,3.882,3.8909,3.8884,3.8896,3.8949,3.9004,3.901,3.8984,3.8937,3.8977,3.8971,3.893,3.9041,3.8994,3.9006,3.9065,3.9178,3.9187,3.9196,3.9282,3.9303,3.9321,0,0,0,0,0,0,3.8912,3.8909,3.8881,3.8974,3.899,3.899,3.9041,3.9007,3.9036,3.9027,3.8992,3.8995,3.9074,3.9077,3.9025,3.9167,3.9101,3.9113,3.9162,3.9182,3.9198,3.9195,3.8948,0,0,0,0,0,3.8943,3.8988,3.8983,3.9065,3.9074,3.9056,3.9079,3.9057,3.9072,3.9078,3.9077,3.9093,3.913,3.9157,3.9191,3.9289,3.9289,3.9335,3.9351,3.9364,3.9375,3.9424,3.9444,3.9231,3.9231,3.923,0,0,3.9008,3.9012,3.9042,3.9084,3.9093,3.9139,3.9063,3.9116,3.9149,3.9086,3.9155,3.9155,3.9169,3.9255,3.9293,3.926,3.9433,3.9376,3.9386,3.939,3.9435,3.9455,3.9473,3.9237,3.9236,3.9235,0,0,3.9149,3.9158,3.9225,3.9236,3.925,3.9237,3.9253,3.9258,3.9255,3.9324,3.9276,3.9315,3.9382,3.9394,3.9408,3.955,3.9512,3.9562,3.9645,3.9693,3.971,3.9724,3.9773,3.9791,3.9573,3.9573,3.9573,0,3.9228,3.9296,3.9265,3.932,3.9338,3.9282,3.9349,3.9361,3.9386,3.94,3.9362,3.9443,3.9449,3.9535,3.9569,3.9584,3.9599,3.9561,3.971,3.9724,3.9737,3.9783,3.9802,3.9579,3.9578,3.9578,3.9577,0,3.939,3.9438,3.9491,3.9515,3.954,3.9601,3.9578,3.9606,3.9581,3.9571,3.964,3.9645,3.9678,3.9697,3.9674,3.9779,3.9757,3.9716,3.9649,3.9764,3.9806,3.9824,3.9587,3.9585,3.9584,3.9582,0,0,3.9593,3.9596,3.9616,3.9625,3.9635,3.9671,3.9728,3.976,3.9784,3.9802,3.9848,3.9905,3.9865,3.9882,3.9859,3.9901,4.0009,3.9853,3.9853,3.9881,4.0123,4.0153,4.0174,3.9984,3.9988,3.999,4.0121,0,3.973,3.9828,3.98,3.9898,3.994,3.9885,3.9935,3.9946,3.9938,3.9971,3.9962,4.0002,3.9947,3.9957,3.9996,3.9988,4.0057,3.9978,4.0025,4.0028,4.0022,4.0197,4.023,4.0353,4.0137,4.014,4.0142,0,3.9905,3.9928,4.003,4.0029,4.0046,4.0091,4.0116,4.0149,4.016,4.015,4.0167,4.0135,4.0189,4.0123,4.0196,4.0143,4.016,4.0159,4.0163,4.0165,4.0091,4.0202,4.0392,4.041,4.0168,4.0166,4.0164,0,4.0039,4.0096,4.0163,4.0173,4.0175,4.0207,4.021,4.0216,4.0236,4.0257,4.0269,4.0298,4.0313,4.0335,4.031,4.0264,4.0387,4.0318,4.0379,4.038,4.0407,4.0406,4.0601,4.0421,4.0421,4.042,4.042,0,4.0195,4.0259,4.0223,4.0265,4.0334,4.03,4.0369,4.0365,4.037,4.0409,4.0364,4.0401,4.0366,4.04,4.0381,4.0443,4.0451,4.0444,4.0438,4.0448,4.0448,4.0458,4.0448,4.0425,4.0424,4.0423,4.0422,0,4.0357,4.0336,4.0405,4.04,4.04,4.0451,4.0447,4.0484,4.0471,4.0521,4.053,4.0511,4.0547,4.0525,4.0563,4.055,4.063,4.0613,4.0627,4.0622,4.0683,4.0677,4.089,4.0916,4.0721,4.0723,4.0725,0,4.0458,4.0505,4.0504,4.0526,4.0531,4.0568,4.0587,4.0554,4.0576,4.0589,4.0624,4.0657,4.0681,4.0743,4.0732,4.076,4.0742,4.0814,4.0746,4.0753,4.0741,4.0738,4.0741,4.0828,4.0831,4.0833,4.0834,0,4.0638,4.0624,4.0653,4.0678,4.0701,4.0719,4.0734,4.0754,4.0721,4.0748,4.0784,4.0803,4.084,4.0872,4.0895,4.0897,4.086,4.0856,4.0871,4.0881,4.0886,4.0882,4.0663,4.0851,4.0849,4.0848,4.0847,4.0846,4.0771,4.0809,4.0814,4.0846,4.0853,4.0867,4.09,4.0891,4.092,4.0947,4.0926,4.0969,4.0975,4.1002,4.1007,4.104,4.101,4.1033,4.1038,4.1044,4.1052,4.0881,4.1044,4.1044,4.1043,4.1043,4.1042,0,4.0947,4.0946,4.0977,4.0997,4.1022,4.0984,4.0997,4.102,4.1058,4.1066,4.109,4.1131,4.1161,4.1151,4.1178,4.1206,4.1189,4.1214,4.1211,4.1211,4.1078,4.1061,4.1226,4.1226,4.1226,4.1226,4.1226,4.1226,4.1042,4.1103,4.1089,4.1153,4.1151,4.1192,4.1202,4.1214,4.122,4.1266,4.1291,4.1284,4.1284,4.131,4.1336,4.1332,4.1343,4.1374,4.1364,4.1239,4.1221,4.1204,4.1188,4.1377,4.1377,4.1494,4.1495,4.1496]}]]